User: anonymous   Login
Location: Unspecified
(0.0000°N, 0.0000°E)
Time: 18:04:49
(UTC+00:00)
Language:

TBA - TO BE ASSIGNED - Orbit

View from above orbital plane
View from above orbital plane
View from above satellite
View from above satellite

Ground track
Ground track

The orbit is defined by the following mean orbital elements,

1 68900U          26145.26658663 +.00000000 +00000-0 +50049-3 0 00007
2 68900  97.2871 340.9589 0001471  93.7476 266.3943 15.49213709    00
Epoch (UTC): 25 May 2026 06:23:53
Eccentricity: 0.0001471
inclination: 97.2871°
perigee height: 418 km
apogee height: 420 km
right ascension of ascending node: 340.9589°
argument of perigee: 93.7476°
revolutions per day: 15.49213709
mean anomaly at epoch: 266.3943°

The dashed part of the orbit path shows where the satellite is in the earth's shadow,  

DLR